Temp
-9 -9 -9 -9 -9 -9 -10 -10 -10 -10 -10 -10 -10 -10 -10 -10 -10 -11 -11 -11 -11 -11 -11 -11 -11 -11 -10 -10 -10 -11 -11 -10 -10 -11 -10 -10 -10 -10 -10 -10 -10 -9 -9 -9 -9 -9 -9 -9 -9
-9 -9 -9 -9 -9 -9 -10 -10 -10 -10 -10 -10 -10 -10 -11 -11 -11 -11 -11 -11 -11 -11 -11 -11 -11 -11 -11 -11 -10 -10 -11 -11 -11 -11 -11 -11 -11 -11 -10 -10 -10 -10 -10 -9 -9 -9 -9 -9 -9
-9 -9 -9 -9 -9 -10 -10 -10 -10 -10 -10 -11 -11 -11 -11 -11 -11 -11 -11 -11 -11 -11 -11 -11 -11 -11 -11 -11 -11 -11 -11 -11 -11 -11 -11 -11 -11 -11 -11 -11 -11 -10 -10 -10 -10 -10 -10 -10 -10
-9 -9 -9 -9 -9 -9 -10 -10 -10 -10 -10 -10 -11 -11 -11 -11 -11 -11 -11 -11 -11 -11 -11 -11 -11 -11 -11 -11 -11 -11 -11 -11 -11 -11 -11 -11 -11 -11 -11 -11 -11 -11 -11 -10 -10 -10 -10 -10 -10
-9 -9 -9 -9 -9 -9 -10 -10 -10 -10 -10 -11 -11 -11 -11 -11 -11 -11 -11 -11 -11 -11 -11 -11 -11 -11 -11 -11 -11 -11 -11 -11 -11 -11 -11 -11 -11 -11 -11 -11 -11 -11 -11 -11 -10 -11 -10 -10 -10
-9 -9 -9 -9 -9 -9 -10 -10 -10 -10 -10 -10 -11 -11 -11 -11 -11 -11 -11 -11 -11 -11 -11 -11 -11 -11 -11 -11 -11 -11 -11 -11 -11 -11 -11 -11 -11 -11 -11 -11 -11 -11 -11 -11 -11 -11 -11 -11 -11
-9 -9 -9 -9 -10 -9 -10 -10 -10 -10 -10 -10 -10 -11 -11 -11 -11 -11 -11 -11 -11 -11 -11 -11 -11 -11 -11 -11 -11 -11 -11 -11 -11 -11 -11 -11 -11 -11 -11 -11 -11 -11 -11 -11 -11 -11 -11 -11 -11
-10 -10 -10 -10 -10 -10 -10 -10 -10 -10 -10 -10 -10 -10 -11 -11 -11 -11 -11 -11 -11 -11 -11 -11 -11 -11 -11 -11 -11 -11 -11 -11 -11 -11 -11 -12 -12 -12 -12 -11 -11 -11 -11 -11 -11 -11 -11 -11 -11
-10 -10 -10 -10 -10 -10 -10 -10 -10 -10 -10 -10 -10 -10 -11 -11 -11 -11 -11 -11 -11 -11 -11 -11 -11 -11 -11 -11 -11 -11 -11 -11 -11 -12 -11 -12 -11 -12 -12 -12 -12 -12 -11 -11 -11 -11 -11 -11 -11
-10 -10 -10 -10 -10 -10 -10 -10 -10 -10 -10 -10 -11 -10 -10 -10 -11 -11 -10 -10 -10 -10 -11 -11 -11 -11 -11 -11 -11 -11 -11 -11 -11 -11 -11 -11 -11 -11 -11 -11 -11 -11 -11 -11 -11 -11 -11 -11 -11
-10 -10 -10 -10 -10 -10 -10 -10 -10 -10 -10 -11 -11 -10 -11 -11 -11 -10 -10 -10 -10 -10 -11 -11 -11 -11 -11 -11 -11 -11 -11 -11 -11 -11 -11 -11 -11 -11 -11 -11 -11 -11 -11 -11 -11 -11 -11 -11 -11
-10 -10 -10 -10 -10 -10 -10 -10 -10 -10 -10 -10 -11 -11 -11 -11 -11 -11 -11 -10 -10 -11 -11 -11 -11 -11 -10 -11 -11 -11 -11 -11 -11 -10 -10 -10 -10 -10 -10 -10 -10 -10 -11 -11 -11 -11 -12 -11 -12
-10 -10 -10 -10 -10 -10 -10 -10 -10 -10 -11 -10 -10 -11 -11 -11 -11 -11 -11 -11 -11 -11 -11 -11 -10 -10 -10 -10 -11 -11 -11 -11 -11 -11 -11 -11 -11 -11 -11 -11 -11 -11 -11 -11 -11 -11 -11 -11 -11
-10 -10 -10 -10 -10 -10 -10 -10 -10 -10 -11 -10 -10 -10 -11 -11 -11 -11 -11 -11 -11 -11 -11 -10 -10 -10 -10 -10 -10 -11 -11 -11 -11 -11 -11 -11 -11 -11 -11 -11 -11 -11 -11 -11 -11 -11 -11 -11 -11
-10 -10 -10 -10 -10 -10 -10 -10 -11 -10 -11 -10 -10 -10 -10 -10 -10 -10 -10 -10 -10 -11 -11 -11 -10 -10 -10 -10 -11 -11 -11 -11 -11 -11 -11 -11 -11 -11 -11 -11 -11 -11 -11 -11 -10 -10 -10 -11 -11
-10 -10 -10 -10 -10 -10 -10 -10 -10 -11 -10 -10 -10 -10 -10 -10 -10 -10 -10 -10 -10 -10 -10 -10 -10 -10 -11 -11 -11 -11 -11 -11 -11 -12 -11 -11 -11 -11 -11 -11 -11 -11 -11 -10 -11 -11 -11 -11 -11
-11 -11 -10 -10 -10 -10 -11 -10 -10 -11 -10 -10 -10 -10 -10 -10 -10 -10 -10 -10 -10 -11 -10 -10 -10 -10 -10 -11 -11 -11 -11 -11 -12 -12 -12 -12 -12 -12 -11 -12 -12 -11 -11 -11 -11 -11 -11 -12 -12
-11 -11 -11 -11 -11 -11 -11 -11 -10 -10 -10 -10 -10 -10 -10 -10 -10 -10 -10 -10 -10 -10 -10 -10 -10 -10 -10 -11 -11 -11 -11 -11 -11 -11 -11 -11 -11 -12 -12 -12 -12 -12 -12 -12 -12 -12 -12 -12 -12
-11 -11 -11 -12 -11 -11 -11 -11 -11 -10 -10 -10 -10 -10 -10 -10 -10 -10 -10 -10 -10 -10 -10 -10 -11 -11 -11 -11 -11 -11 -11 -11 -11 -11 -11 -12 -12 -12 -12 -12 -12 -12 -12 -12 -12 -12 -13 -13 -13
-12 -12 -12 -12 -12 -11 -11 -10 -10 -10 -10 -11 -10 -10 -11 -11 -11 -10 -10 -10 -10 -10 -10 -11 -11 -11 -11 -11 -10 -10 -10 -11 -11 -11 -12 -12 -12 -12 -12 -12 -12 -12 -13 -13 -14 -14 -14 -14 -14
-12 -12 -12 -12 -12 -11 -11 -10 -10 -10 -10 -10 -11 -11 -10 -11 -11 -10 -10 -10 -10 -10 -11 -11 -11 -11 -11 -11 -11 -10 -11 -11 -11 -12 -12 -12 -12 -12 -11 -12 -13 -13 -14 -14 -14 -14 -14 -14 -14
-12 -12 -12 -12 -12 -12 -11 -10 -10 -10 -11 -10 -11 -11 -10 -11 -11 -10 -10 -10 -11 -11 -11 -11 -11 -11 -11 -11 -11 -11 -11 -12 -12 -12 -12 -13 -13 -13 -13 -14 -14 -14 -14 -15 -15 -15 -15 -15 -15
-12 -13 -13 -13 -13 -12 -11 -10 -9 -10 -10 -10 -11 -11 -11 -11 -10 -11 -11 -11 -11 -11 -11 -11 -11 -11 -12 -12 -12 -12 -12 -12 -12 -13 -13 -13 -13 -14 -15 -15 -15 -15 -15 -15 -15 -15 -15 -16 -16
-13 -13 -13 -13 -13 -11 -11 -12 -9 -10 -10 -10 -11 -11 -10 -10 -10 -11 -11 -11 -11 -12 -11 -11 -12 -12 -12 -12 -12 -12 -12 -12 -12 -13 -13 -14 -14 -15 -15 -15 -15 -16 -16 -16 -16 -16 -17 -17 -17
-13 -13 -13 -13 -13 -11 -12 -11 -9 -10 -11 -11 -11 -11 -10 -11 -11 -11 -12 -12 -12 -12 -12 -12 -12 -12 -12 -12 -12 -12 -13 -13 -13 -13 -13 -14 -15 -15 -15 -15 -16 -16 -16 -16 -17 -17 -17 -17 -18
-14 -14 -14 -13 -13 -12 -11 -9 -9 -10 -11 -12 -11 -11 -11 -12 -12 -12 -12 -12 -12 -12 -12 -12 -12 -12 -13 -13 -13 -13 -13 -13 -13 -14 -14 -15 -15 -15 -15 -16 -16 -17 -17 -17 -17 -17 -17 -18 -18
-14 -13 -15 -14 -13 -12 -11 -10 -10 -9 -11 -12 -12 -12 -12 -13 -13 -13 -13 -13 -13 -13 -13 -13 -13 -13 -13 -13 -13 -13 -13 -13 -14 -14 -15 -15 -15 -16 -16 -17 -17 -18 -18 -18 -18 -18 -18 -18 -19
-14 -14 -14 -14 -14 -13 -11 -10 -9 -10 -11 -12 -12 -13 -13 -13 -13 -13 -13 -13 -13 -13 -13 -13 -13 -13 -13 -13 -14 -14 -14 -15 -15 -15 -16 -16 -16 -17 -17 -17 -18 -18 -18 -18 -19 -19 -19 -19 -20
-14 -14 -14 -15 -14 -13 -11 -10 -10 -10 -11 -12 -12 -13 -13 -14 -14 -13 -13 -13 -13 -13 -13 -13 -13 -13 -14 -14 -14 -14 -15 -15 -16 -16 -16 -17 -17 -17 -18 -18 -18 -19 -19 -19 -19 -19 -19 -20 -21
-14 -14 -13 -14 -13 -13 -13 -9 -11 -11 -11 -12 -12 -13 -14 -14 -14 -14 -13 -13 -13 -13 -13 -13 -14 -14 -14 -14 -15 -15 -16 -16 -17 -17 -17 -17 -18 -18 -18 -19 -19 -19 -20 -20 -20 -20 -21 -22 -23
Height
5874 5874 5874 5873 5875 5871 5870 5871 5870 5870 5870 5869 5869 5869 5869 5868 5869 5871 5869 5869 5869 5869 5869 5869 5869 5869 5869 5869 5869 5869 5869 5870 5871 5872 5873 5876 5877 5878 5879 5880 5881 5881 5882 5883 5883 5882 5883 5883 5882
5874 5875 5875 5874 5874 5871 5872 5871 5871 5871 5871 5871 5870 5870 5870 5870 5869 5869 5870 5870 5870 5870 5870 5870 5870 5870 5870 5870 5870 5870 5870 5871 5871 5872 5873 5874 5875 5877 5878 5879 5880 5880 5880 5881 5882 5881 5882 5882 5881
5875 5875 5876 5875 5873 5872 5872 5872 5872 5872 5872 5872 5872 5871 5871 5871 5870 5870 5870 5870 5870 5870 5870 5870 5870 5870 5870 5870 5871 5871 5872 5872 5873 5873 5874 5874 5875 5876 5876 5877 5878 5878 5879 5879 5879 5880 5881 5881 5880
5875 5876 5876 5876 5874 5874 5873 5872 5872 5872 5872 5872 5872 5872 5872 5872 5871 5871 5871 5871 5870 5870 5870 5870 5870 5870 5870 5870 5871 5872 5872 5873 5873 5873 5874 5874 5875 5875 5875 5876 5877 5878 5877 5877 5879 5879 5879 5879 5878
5875 5876 5876 5875 5874 5874 5874 5873 5873 5872 5872 5872 5872 5872 5872 5872 5872 5871 5871 5871 5871 5871 5871 5871 5870 5870 5870 5870 5871 5871 5872 5872 5873 5873 5873 5873 5874 5874 5875 5876 5876 5876 5877 5878 5878 5878 5878 5877 5877
5875 5875 5875 5875 5875 5874 5874 5873 5872 5872 5872 5871 5871 5871 5871 5871 5871 5871 5871 5871 5871 5871 5871 5871 5871 5871 5870 5870 5870 5870 5871 5872 5872 5872 5873 5873 5873 5874 5874 5874 5874 5875 5875 5876 5875 5875 5875 5875 5875
5874 5874 5874 5873 5873 5874 5874 5873 5872 5871 5871 5871 5870 5871 5871 5870 5869 5870 5870 5870 5870 5871 5871 5871 5870 5870 5870 5870 5870 5870 5870 5870 5870 5870 5871 5872 5872 5873 5873 5873 5873 5873 5873 5873 5873 5873 5873 5873 5873
5872 5873 5873 5872 5872 5872 5872 5872 5871 5870 5870 5870 5869 5870 5869 5868 5868 5868 5868 5868 5869 5869 5869 5869 5870 5869 5869 5869 5869 5869 5869 5869 5869 5868 5869 5869 5870 5871 5871 5871 5871 5871 5871 5871 5870 5870 5870 5870 5870
5870 5871 5871 5871 5870 5870 5870 5870 5869 5869 5869 5868 5868 5868 5868 5867 5867 5867 5867 5867 5867 5867 5867 5867 5867 5868 5868 5868 5868 5868 5868 5868 5868 5868 5868 5867 5867 5868 5868 5867 5868 5867 5867 5867 5866 5867 5866 5866 5866
5868 5868 5869 5869 5869 5867 5868 5867 5867 5867 5867 5866 5866 5866 5866 5866 5866 5865 5865 5865 5865 5866 5866 5866 5866 5865 5865 5865 5865 5865 5865 5865 5865 5866 5865 5864 5863 5864 5864 5864 5864 5864 5864 5864 5864 5863 5863 5862 5862
5865 5865 5865 5866 5866 5865 5865 5864 5864 5864 5864 5865 5864 5863 5864 5864 5864 5864 5864 5864 5863 5863 5863 5863 5863 5863 5863 5863 5862 5862 5861 5861 5861 5861 5860 5860 5860 5860 5860 5860 5860 5860 5860 5860 5859 5859 5859 5859 5858
5862 5862 5862 5862 5862 5862 5862 5861 5860 5861 5862 5861 5861 5860 5860 5860 5860 5861 5861 5861 5861 5861 5861 5860 5859 5858 5858 5859 5860 5860 5859 5858 5858 5858 5858 5857 5857 5857 5857 5856 5856 5856 5856 5856 5855 5854 5854 5854 5854
5858 5858 5857 5858 5858 5858 5858 5857 5857 5857 5857 5858 5857 5857 5857 5856 5856 5856 5857 5857 5858 5858 5858 5857 5856 5856 5856 5857 5856 5856 5856 5856 5856 5855 5855 5855 5854 5854 5853 5853 5852 5852 5852 5851 5851 5850 5849 5848 5847
5854 5853 5853 5853 5853 5853 5853 5853 5854 5852 5853 5853 5853 5853 5853 5853 5853 5853 5853 5854 5854 5855 5855 5854 5853 5853 5853 5853 5853 5853 5853 5853 5852 5852 5851 5850 5849 5849 5848 5848 5847 5847 5846 5846 5845 5844 5844 5842 5842
5848 5848 5847 5848 5847 5847 5846 5848 5850 5848 5848 5848 5848 5849 5849 5850 5850 5850 5850 5850 5850 5850 5849 5849 5849 5848 5848 5848 5849 5849 5849 5849 5848 5848 5847 5846 5845 5843 5843 5842 5841 5840 5839 5838 5837 5836 5835 5834 5833
5842 5843 5841 5843 5841 5841 5840 5844 5842 5843 5843 5843 5843 5844 5844 5845 5845 5845 5846 5846 5846 5845 5845 5844 5844 5844 5844 5844 5843 5843 5843 5844 5844 5844 5843 5842 5841 5839 5838 5837 5836 5835 5834 5833 5832 5830 5829 5827 5825
5837 5835 5835 5835 5836 5835 5833 5835 5836 5837 5836 5838 5838 5839 5839 5839 5839 5840 5840 5840 5840 5839 5839 5839 5839 5839 5839 5839 5839 5839 5839 5839 5839 5838 5838 5837 5835 5834 5833 5832 5831 5830 5828 5827 5826 5823 5821 5819 5817
5827 5828 5829 5828 5829 5828 5827 5828 5828 5829 5829 5831 5833 5833 5833 5834 5834 5834 5834 5834 5833 5834 5834 5833 5833 5833 5833 5834 5835 5835 5834 5833 5832 5831 5831 5830 5829 5828 5827 5826 5824 5822 5821 5819 5818 5816 5814 5812 5810
5820 5821 5820 5823 5818 5820 5820 5820 5820 5822 5823 5826 5826 5827 5827 5828 5829 5828 5828 5828 5828 5828 5828 5829 5829 5828 5828 5828 5828 5828 5827 5827 5826 5826 5825 5824 5823 5821 5820 5818 5817 5815 5813 5811 5809 5807 5805 5802 5799
5814 5813 5815 5814 5809 5811 5812 5811 5813 5812 5818 5819 5819 5820 5821 5822 5821 5821 5821 5821 5821 5821 5822 5822 5822 5822 5821 5821 5820 5820 5820 5820 5820 5819 5817 5816 5814 5812 5811 5809 5806 5804 5802 5799 5797 5793 5791 5789 5786
5806 5805 5807 5805 5801 5802 5802 5800 5805 5807 5808 5812 5813 5812 5813 5814 5813 5813 5813 5813 5813 5814 5815 5814 5814 5813 5813 5813 5812 5813 5813 5813 5812 5810 5809 5807 5805 5803 5801 5798 5795 5792 5789 5786 5783 5780 5777 5775 5772
5797 5797 5797 5798 5794 5793 5794 5784 5798 5803 5801 5802 5806 5803 5803 5806 5806 5804 5804 5805 5805 5805 5805 5805 5805 5805 5805 5805 5805 5805 5805 5805 5804 5803 5801 5799 5797 5794 5791 5787 5783 5779 5776 5773 5770 5767 5763 5759 5756
5790 5790 5788 5789 5787 5782 5786 5778 5783 5794 5795 5795 5797 5794 5793 5796 5796 5796 5796 5796 5797 5797 5797 5797 5797 5797 5797 5797 5796 5796 5796 5795 5794 5792 5790 5787 5785 5782 5779 5776 5773 5768 5763 5760 5756 5752 5748 5744 5740
5780 5781 5780 5778 5777 5770 5779 5779 5768 5782 5785 5785 5785 5785 5784 5786 5786 5787 5788 5788 5789 5789 5789 5789 5789 5789 5789 5789 5788 5787 5787 5785 5783 5781 5779 5777 5774 5770 5766 5763 5758 5755 5751 5747 5742 5738 5734 5729 5724
5771 5771 5769 5767 5764 5764 5768 5766 5767 5767 5772 5775 5775 5774 5775 5775 5777 5779 5779 5780 5781 5781 5781 5781 5781 5781 5781 5780 5780 5778 5777 5775 5773 5770 5767 5764 5760 5757 5753 5749 5745 5740 5736 5731 5727 5721 5715 5710 5704
5756 5759 5758 5758 5756 5754 5754 5754 5758 5759 5762 5762 5763 5764 5766 5767 5768 5770 5771 5772 5773 5773 5773 5773 5773 5772 5772 5771 5770 5768 5767 5765 5762 5759 5755 5751 5747 5743 5739 5735 5731 5726 5720 5716 5709 5703 5697 5689 5682
5746 5746 5756 5747 5747 5744 5743 5745 5748 5748 5755 5753 5754 5755 5757 5759 5761 5762 5763 5764 5764 5764 5763 5763 5763 5762 5761 5760 5759 5757 5755 5752 5748 5744 5740 5737 5733 5729 5725 5720 5715 5710 5704 5698 5690 5684 5676 5668 5660
5736 5740 5741 5738 5736 5734 5733 5734 5735 5739 5744 5744 5746 5747 5749 5751 5752 5753 5754 5754 5754 5754 5754 5753 5752 5751 5750 5748 5746 5743 5741 5737 5734 5729 5725 5722 5718 5714 5708 5703 5698 5692 5684 5677 5669 5663 5655 5645 5637
5727 5725 5726 5727 5724 5723 5724 5726 5727 5727 5731 5735 5737 5738 5740 5741 5743 5744 5744 5744 5744 5744 5743 5742 5741 5739 5738 5736 5733 5731 5728 5724 5720 5715 5710 5705 5701 5696 5690 5685 5680 5672 5664 5656 5649 5641 5632 5622 5612
5710 5711 5712 5711 5715 5716 5714 5717 5716 5717 5718 5722 5725 5727 5729 5730 5730 5732 5733 5734 5734 5733 5732 5730 5728 5726 5724 5721 5719 5716 5712 5708 5703 5698 5693 5689 5683 5677 5671 5667 5660 5652 5644 5635 5627 5619 5609 5600 5591
Wind_Speed
9 9 10 11 12 16 12 9 6 6 7 7 7 7 7 7 6 7 8 9 10 10 10 9 6 5 6 8 8 7 4 0 3 6 8 8 8 7 7 7 8 10 11 12 12 13 14 12 12
7 7 9 11 9 14 10 7 5 4 4 6 6 7 8 8 7 6 6 6 7 7 8 8 8 7 6 5 5 6 7 6 5 3 4 5 4 5 6 6 7 8 9 10 11 11 12 12 12
4 6 7 8 14 13 9 6 4 3 2 3 5 5 6 7 8 5 4 4 4 5 4 5 4 4 5 6 4 3 3 5 6 5 5 5 4 4 5 6 7 8 9 10 10 11 11 11 11
3 3 4 7 10 12 9 6 3 2 1 1 2 3 3 3 5 6 5 3 3 3 2 2 2 2 2 2 2 2 2 1 2 4 5 6 7 7 7 7 7 7 8 9 10 11 12 12 12
2 1 3 6 8 9 10 6 3 2 2 3 2 2 2 2 1 1 2 3 2 2 1 0 1 2 2 1 2 2 2 1 2 2 3 5 6 7 8 9 9 9 9 9 10 11 12 13 13
2 3 5 7 7 8 9 8 6 3 3 5 5 5 6 6 2 2 3 3 2 2 2 2 3 3 4 5 5 5 5 5 5 5 5 6 6 6 7 8 9 11 12 13 13 13 14 14 14
3 5 8 10 9 10 10 10 8 7 5 6 6 7 8 8 7 4 4 5 5 5 4 4 5 5 5 5 6 6 6 7 7 8 8 8 9 9 11 11 11 11 11 13 13 15 16 17 17
6 7 10 11 11 12 13 12 10 9 8 8 8 6 9 9 9 7 6 6 7 8 8 8 7 8 8 8 8 8 8 8 8 8 8 8 10 9 11 12 14 15 15 15 16 16 17 17 18
10 11 12 13 14 15 15 14 12 11 9 11 11 9 8 9 9 8 8 9 9 10 10 11 11 11 10 10 11 10 11 11 11 12 11 12 11 9 12 13 12 14 16 16 18 19 20 21 21
14 15 15 16 15 18 17 16 12 12 10 13 13 13 10 10 11 12 13 14 14 13 13 14 14 14 13 11 11 10 10 10 10 10 11 12 12 11 12 14 15 16 18 19 19 20 21 23 24
18 19 18 17 17 19 16 17 14 13 13 12 15 15 14 13 13 14 15 16 16 16 17 17 17 16 16 15 12 11 11 11 11 12 14 14 15 15 16 16 17 17 19 20 22 23 24 24 25
21 20 20 20 20 20 17 17 17 16 14 16 15 17 17 18 17 16 16 16 16 16 15 16 17 17 18 17 15 14 14 14 15 16 17 18 18 18 18 18 19 19 20 21 22 24 25 27 27
21 21 24 24 24 23 20 19 18 18 19 18 18 18 19 20 20 19 18 16 16 17 18 19 19 18 19 18 18 19 19 19 18 19 18 19 18 19 20 21 22 23 24 26 27 27 29 29 30
24 26 27 27 27 25 23 21 18 22 22 20 20 20 19 20 20 20 19 18 17 17 20 22 22 21 19 19 19 20 20 22 21 21 22 22 22 22 22 22 22 23 24 25 27 29 31 33 33
27 28 28 27 28 27 28 24 21 23 23 23 22 22 21 20 21 21 21 20 20 21 22 23 23 23 21 20 20 20 21 21 23 24 25 24 24 25 25 25 27 27 28 28 29 31 32 32 33
29 30 32 29 30 31 32 25 28 25 24 24 24 23 23 22 22 22 22 23 23 23 23 23 24 23 21 21 21 21 22 22 23 24 25 25 27 27 28 28 28 28 29 28 28 30 31 34 36
30 33 33 34 31 30 33 31 29 28 28 26 25 24 24 25 25 26 25 25 26 26 24 22 22 23 23 23 23 23 23 24 25 26 27 28 29 31 33 33 33 35 35 37 40 40 41 41 42
36 36 34 35 34 33 34 32 32 30 30 27 26 25 26 26 27 28 28 27 27 27 26 25 25 24 25 26 26 27 28 28 29 30 31 32 34 34 34 35 36 37 38 39 41 41 43 46 48
39 39 38 32 38 36 35 35 36 32 32 29 29 29 28 29 29 29 30 30 29 29 28 28 29 27 26 26 26 28 31 33 34 35 36 35 35 36 35 36 37 38 41 43 44 45 47 49 52
40 39 34 34 38 36 35 36 35 36 30 33 34 32 32 31 32 32 32 31 31 31 30 28 29 30 30 29 30 32 34 36 35 34 33 34 34 35 37 38 40 41 44 46 48 51 52 55 58
36 37 34 36 39 39 38 41 36 37 37 34 32 36 35 33 35 35 34 33 32 32 31 30 31 32 33 33 32 32 34 34 34 33 33 34 36 37 39 41 43 46 48 50 53 56 58 59 62
38 36 38 37 40 42 42 50 38 36 38 38 35 38 39 37 35 34 34 33 33 33 34 35 35 35 34 33 33 34 35 35 33 35 38 40 41 42 44 46 47 50 52 54 56 59 62 63 66
39 38 40 39 41 47 44 52 45 38 37 36 34 40 42 39 37 34 34 35 35 35 35 36 37 37 37 36 36 38 38 37 40 42 43 45 46 47 49 51 54 53 54 56 58 61 63 65 67
40 39 42 45 46 52 45 46 52 43 40 38 37 39 41 41 39 36 34 34 34 34 35 36 37 37 38 39 41 42 42 43 46 47 48 50 51 52 53 55 55 56 57 59 60 63 68 72 73
42 42 45 50 52 54 49 50 44 46 42 38 37 37 37 35 33 32 35 35 35 34 35 35 34 36 38 39 40 42 45 48 49 51 53 52 53 55 57 58 58 58 61 63 66 69 72 76 79
43 45 47 48 52 56 56 50 44 41 33 35 33 33 32 31 30 33 36 35 34 35 34 35 37 39 39 40 43 46 49 50 53 55 55 55 57 60 60 59 61 62 63 68 72 77 80 81 83
47 50 40 50 53 57 55 51 47 44 31 28 29 29 28 29 30 31 33 34 35 37 41 42 41 43 44 47 49 51 52 55 59 57 57 59 61 61 59 64 64 66 69 73 78 81 83 85 89
50 50 51 57 58 57 53 50 47 44 35 31 29 27 26 27 26 26 28 32 36 38 40 41 43 46 48 50 52 54 55 57 59 59 60 61 61 61 65 67 68 71 73 77 80 84 86 89 92
52 54 53 52 56 57 53 47 48 46 42 35 33 31 28 26 27 30 32 35 36 38 42 45 47 49 53 56 57 59 60 60 61 63 64 61 63 67 69 69 74 76 77 81 83 87 92 94 94
59 59 56 56 53 51 53 42 45 44 44 37 36 35 32 30 30 33 35 38 41 44 47 49 51 54 57 61 61 61 61 62 63 66 65 66 69 72 72 74 75 79 82 85 89 92 93 92 88
Wind_Direction
90 72 61 54 51 42 57 69 70 69 51 52 60 67 61 57 68 80 80 81 82 80 77 75 71 57 46 51 50 55 55 342 264 262 265 269 273 275 273 282 274 273 276 280 284 285 287 291 297
92 73 57 53 35 51 41 52 73 80 66 57 56 70 65 64 66 66 67 71 76 77 77 77 73 68 59 41 33 34 35 37 45 4 312 291 281 273 281 273 276 278 282 283 286 284 282 284 287
96 73 61 38 37 38 34 25 53 91 90 78 59 62 73 75 73 83 88 90 88 86 82 80 77 78 82 78 62 35 22 9 10 7 360 1 357 325 307 297 289 284 284 286 290 287 282 282 285
116 73 49 35 39 28 24 12 9 35 149 317 83 72 71 84 84 83 93 109 115 109 100 81 65 47 30 40 53 82 102 115 329 332 336 342 345 339 330 317 307 299 302 303 292 287 286 285 285
158 2 4 9 22 18 10 355 340 316 285 267 298 2 43 66 64 100 87 87 86 92 122 193 275 298 294 281 269 272 287 330 335 331 331 334 327 319 313 316 318 315 309 299 295 295 293 294 291
212 302 334 354 353 355 355 344 312 280 277 287 297 299 311 323 346 238 251 268 284 302 316 325 326 319 319 315 302 291 294 299 301 302 311 317 314 312 313 311 306 304 302 303 304 304 303 301 298
257 305 321 329 335 333 334 332 306 276 269 276 300 304 303 304 308 298 253 261 265 267 273 287 290 292 298 309 316 320 316 312 306 304 304 299 296 301 302 303 302 302 306 306 307 302 299 297 297
271 293 307 313 316 320 319 318 303 275 258 277 293 297 294 301 299 286 272 273 276 280 282 283 284 284 287 293 298 305 310 310 311 316 314 315 313 312 301 294 295 296 294 293 294 296 296 296 297
275 288 295 302 305 310 311 308 299 275 259 264 271 285 287 289 295 285 275 282 286 287 293 295 295 294 295 298 298 301 304 309 309 310 313 310 303 302 301 298 294 291 289 289 288 288 289 290 291
278 285 295 294 301 304 307 300 290 274 266 272 270 266 274 279 281 279 278 280 282 285 290 292 291 290 292 296 296 299 294 297 301 307 307 298 294 289 287 291 297 300 303 303 302 299 295 293 290
277 285 287 291 296 301 303 296 283 275 277 281 269 268 264 269 271 272 271 272 274 278 286 291 288 284 279 278 279 283 287 285 287 288 282 290 300 303 302 301 297 296 296 297 300 300 300 298 297
278 283 283 286 289 295 301 289 281 279 279 278 271 272 269 268 273 276 272 270 272 271 279 286 287 283 281 276 277 277 274 272 276 284 295 299 301 305 306 304 303 303 302 301 298 297 295 295 295
279 279 283 286 287 289 292 287 282 281 276 275 272 269 269 273 277 278 276 272 269 268 279 285 284 281 276 278 276 276 281 284 286 290 292 295 296 299 301 303 305 306 306 305 305 303 301 300 298
277 280 281 284 286 287 285 283 281 276 274 271 268 265 264 267 272 275 277 275 273 272 276 280 279 278 277 273 274 276 282 289 291 293 296 297 297 297 297 300 300 301 302 304 305 304 305 304 303
279 280 282 283 285 284 282 284 272 275 269 269 266 266 267 268 269 270 270 270 272 273 278 282 279 273 269 270 272 276 279 281 283 285 286 289 292 292 294 295 298 301 302 301 301 301 302 301 300
281 281 281 281 280 282 282 281 275 273 269 263 264 266 266 267 268 270 272 269 268 270 274 277 279 276 272 270 270 270 274 277 280 283 283 284 283 286 288 289 288 286 285 290 293 300 299 296 297
282 278 277 279 281 280 279 278 275 270 266 261 262 263 265 267 270 273 272 270 270 268 267 266 268 269 267 267 269 272 273 273 277 281 282 283 284 286 287 287 288 289 287 288 288 288 289 289 290
275 278 280 283 276 274 274 275 272 269 265 262 260 260 264 268 272 274 275 275 274 274 269 265 263 264 266 269 273 275 276 278 281 281 282 280 279 278 279 280 281 282 285 287 289 291 292 293 291
279 281 279 275 273 272 272 269 271 267 266 268 262 260 265 271 274 278 280 279 276 273 269 269 267 265 264 269 276 280 282 283 285 281 279 277 278 279 284 289 290 292 295 296 296 296 295 293 293
276 277 277 274 273 270 268 268 265 268 265 265 265 261 265 272 272 274 277 277 274 272 272 275 273 272 272 271 271 275 276 274 272 275 276 280 283 287 291 293 295 296 296 296 295 294 296 296 295
274 272 271 270 271 272 272 266 266 268 272 269 268 266 267 270 276 274 274 272 270 270 271 278 277 273 270 269 267 268 272 277 280 282 284 286 286 286 288 289 291 293 295 295 295 294 293 295 294
268 266 268 272 273 276 271 273 267 271 270 273 275 271 268 273 277 274 270 268 267 268 270 276 278 276 273 270 268 269 271 279 280 284 285 288 287 286 286 288 290 292 293 293 295 297 298 298 297
268 268 269 267 268 271 272 282 283 273 275 280 270 267 269 271 273 273 269 267 267 270 273 275 277 277 272 269 271 274 277 281 286 289 289 288 288 288 289 291 292 292 294 295 296 297 298 298 299
267 267 267 268 269 269 276 279 283 283 277 280 275 269 270 271 270 270 270 267 268 272 276 278 278 277 276 275 277 280 282 281 285 288 290 291 290 290 294 294 294 295 297 299 300 301 302 301 300
263 261 264 265 266 273 279 277 285 291 282 282 277 272 272 270 266 266 266 267 272 274 274 277 280 282 281 280 281 281 280 283 287 288 288 289 293 294 296 295 296 298 300 300 299 301 302 301 300
258 262 260 267 275 277 276 274 283 294 285 286 278 271 266 263 260 258 261 267 273 273 276 278 278 280 281 281 283 285 286 286 288 289 289 293 296 295 293 295 296 297 298 299 302 304 304 303 301
258 262 272 268 273 278 276 276 279 284 289 283 272 263 261 259 261 263 264 265 266 270 274 280 280 281 281 284 286 288 288 286 287 289 291 292 294 293 292 294 294 297 299 302 303 304 303 302 299
266 269 269 271 274 277 275 276 278 284 281 276 267 259 259 261 260 260 264 266 269 272 275 278 280 281 282 283 286 288 288 287 288 290 292 292 292 292 296 295 295 297 300 301 302 302 302 301 298
268 267 271 271 268 269 277 282 280 278 278 273 265 263 270 270 264 262 263 267 272 277 278 280 284 287 287 287 288 290 289 288 291 293 292 290 290 293 297 297 298 299 300 302 302 303 302 299 299
268 263 267 269 273 275 272 275 280 280 279 279 266 264 270 269 265 266 270 272 274 276 279 280 282 284 285 287 285 287 289 290 292 294 291 291 291 294 297 297 298 301 302 303 303 301 300 299 301